Location: Breungeshain
(50.5000°N, 9.2000°E)
Time: 17:46:24
(UTC+00:00)

ISS - Pass Details

Date: 22 May 2018
Orbit: 402 x 407 km, 51.6° (Epoch: 27 May)

Event Time Altitude Azimuth Distance (km) Brightness Sun altitude
Rises 20:58:40 0° 239° (WSW) 2,314 0.1 -12.5°
Reaches altitude 10° 21:00:46 10° 235° (SW) 1,456 -1.0 -12.6°
Maximum altitude 21:03:58 55° 157° (SSE) 490 -3.8 -12.9°
Drops below altitude 10° 21:07:10 10° 78° (ENE) 1,460 -1.2 -13.2°
Sets 21:09:16 0° 74° (ENE) 2,321 -0.1 -13.4°
